QPF
0.00 0.00 0.00 0.00 0.00 0.00 0.00 0.00 0.00 0.00 0.00 0.00 0.00 0.00 0.00 0.00 0.00 0.09 0.34 0.06 0.06 0.03 0.00 0.00 0.00 0.00 0.00 0.00 0.00 0.00 0.01 0.04 0.02 0.00 0.00 0.00 0.00 0.00 0.00 0.00 0.00 0.00 0.00 0.00 0.00 0.00 0.00 0.00 0.00
0.00 0.00 0.00 0.00 0.00 0.00 0.01 0.02 0.00 0.02 0.05 0.06 0.01 0.00 0.00 0.00 0.00 0.03 0.14 0.10 0.01 0.00 0.00 0.00 0.00 0.00 0.00 0.00 0.01 0.00 0.00 0.01 0.00 0.00 0.00 0.00 0.00 0.00 0.00 0.00 0.00 0.00 0.00 0.00 0.00 0.00 0.00 0.00 0.00
0.00 0.00 0.00 0.00 0.00 0.00 0.00 0.05 0.03 0.03 0.05 0.02 0.01 0.00 0.00 0.00 0.00 0.00 0.00 0.00 0.00 0.00 0.00 0.00 0.00 0.00 0.00 0.00 0.00 0.00 0.00 0.00 0.00 0.00 0.00 0.00 0.00 0.00 0.00 0.00 0.00 0.00 0.00 0.00 0.00 0.00 0.00 0.00 0.00
0.00 0.00 0.00 0.00 0.00 0.00 0.01 0.03 0.01 0.01 0.03 0.08 0.02 0.00 0.00 0.00 0.00 0.00 0.00 0.00 0.00 0.00 0.00 0.00 0.00 0.00 0.00 0.00 0.00 0.00 0.00 0.00 0.00 0.00 0.00 0.00 0.00 0.00 0.00 0.00 0.00 0.00 0.00 0.00 0.00 0.00 0.00 0.00 0.00
0.00 0.00 0.00 0.00 0.00 0.01 0.01 0.01 0.02 0.00 0.03 0.09 0.05 0.00 0.00 0.00 0.00 0.01 0.01 0.00 0.00 0.00 0.00 0.00 0.00 0.00 0.00 0.00 0.00 0.00 0.00 0.00 0.00 0.00 0.00 0.00 0.00 0.00 0.00 0.00 0.00 0.00 0.00 0.00 0.00 0.00 0.00 0.00 0.00
0.00 0.00 0.00 0.00 0.00 0.01 0.01 0.02 0.02 0.00 0.00 0.08 0.05 0.00 0.00 0.00 0.00 0.00 0.00 0.00 0.00 0.00 0.00 0.00 0.00 0.00 0.00 0.00 0.00 0.00 0.00 0.00 0.00 0.00 0.00 0.00 0.00 0.00 0.00 0.00 0.00 0.00 0.00 0.00 0.00 0.00 0.00 0.00 0.00
0.00 0.00 0.00 0.00 0.01 0.04 0.06 0.05 0.02 0.04 0.04 0.05 0.06 0.02 0.01 0.03 0.01 0.00 0.00 0.00 0.00 0.00 0.00 0.00 0.00 0.02 0.00 0.00 0.00 0.00 0.00 0.00 0.00 0.00 0.00 0.00 0.00 0.00 0.00 0.00 0.00 0.00 0.00 0.00 0.00 0.00 0.00 0.00 0.00
0.00 0.00 0.00 0.00 0.00 0.03 0.13 0.10 0.12 0.30 0.22 0.15 0.18 0.01 0.06 0.12 0.02 0.01 0.01 0.01 0.00 0.00 0.00 0.01 0.01 0.00 0.01 0.01 0.00 0.00 0.00 0.00 0.00 0.00 0.00 0.00 0.00 0.00 0.00 0.00 0.00 0.00 0.00 0.00 0.00 0.00 0.00 0.00 0.00
0.00 0.00 0.00 0.00 0.02 0.05 0.03 0.08 0.23 0.20 0.13 0.09 0.06 0.04 0.04 0.03 0.01 0.05 0.05 0.04 0.01 0.00 0.00 0.00 0.02 0.06 0.17 0.10 0.06 0.03 0.00 0.00 0.00 0.00 0.00 0.00 0.00 0.00 0.00 0.00 0.00 0.00 0.00 0.00 0.00 0.00 0.00 0.00 0.00
0.00 0.00 0.01 0.01 0.04 0.04 0.02 0.03 0.06 0.02 0.03 0.09 0.05 0.06 0.17 0.11 0.11 0.13 0.07 0.01 0.00 0.00 0.00 0.00 0.00 0.01 0.07 0.09 0.06 0.03 0.00 0.00 0.00 0.00 0.00 0.00 0.00 0.01 0.01 0.01 0.04 0.05 0.01 0.00 0.00 0.00 0.00 0.00 0.00
0.00 0.00 0.00 0.01 0.04 0.04 0.00 0.01 0.01 0.01 0.01 0.03 0.03 0.04 0.07 0.11 0.07 0.04 0.00 0.00 0.00 0.00 0.00 0.01 0.00 0.00 0.00 0.01 0.02 0.00 0.00 0.00 0.00 0.00 0.00 0.00 0.00 0.01 0.07 0.08 0.08 0.05 0.06 0.04 0.03 0.00 0.00 0.00 0.00
0.00 0.00 0.00 0.01 0.02 0.00 0.00 0.00 0.00 0.01 0.00 0.02 0.02 0.02 0.03 0.03 0.01 0.00 0.00 0.00 0.00 0.00 0.00 0.00 0.00 0.00 0.00 0.00 0.00 0.00 0.00 0.00 0.00 0.00 0.00 0.00 0.00 0.02 0.06 0.05 0.06 0.03 0.05 0.03 0.02 0.00 0.00 0.00 0.00
0.00 0.00 0.00 0.00 0.01 0.00 0.00 0.00 0.00 0.00 0.00 0.02 0.01 0.00 0.00 0.00 0.01 0.02 0.02 0.01 0.00 0.00 0.00 0.00 0.00 0.00 0.00 0.00 0.00 0.00 0.00 0.00 0.00 0.00 0.00 0.00 0.00 0.00 0.00 0.00 0.01 0.01 0.01 0.01 0.00 0.00 0.00 0.00 0.00
0.00 0.00 0.00 0.03 0.03 0.02 0.00 0.00 0.00 0.00 0.00 0.01 0.02 0.01 0.02 0.03 0.03 0.02 0.01 0.00 0.00 0.00 0.00 0.00 0.00 0.00 0.00 0.00 0.00 0.00 0.00 0.00 0.00 0.00 0.00 0.00 0.00 0.00 0.00 0.00 0.00 0.00 0.00 0.00 0.00 0.00 0.00 0.00 0.00
0.00 0.00 0.02 0.10 0.09 0.04 0.03 0.01 0.00 0.00 0.00 0.02 0.03 0.02 0.01 0.02 0.00 0.00 0.00 0.00 0.00 0.00 0.00 0.00 0.00 0.00 0.00 0.00 0.00 0.00 0.00 0.00 0.00 0.00 0.00 0.00 0.00 0.00 0.00 0.00 0.00 0.00 0.00 0.00 0.00 0.00 0.00 0.00 0.00
0.00 0.00 0.01 0.01 0.04 0.03 0.04 0.04 0.00 0.00 0.00 0.01 0.01 0.00 0.00 0.00 0.00 0.00 0.00 0.00 0.00 0.00 0.00 0.00 0.00 0.00 0.00 0.00 0.00 0.00 0.00 0.00 0.00 0.00 0.00 0.00 0.00 0.00 0.00 0.00 0.00 0.00 0.00 0.00 0.00 0.00 0.00 0.00 0.00
0.00 0.00 0.00 0.00 0.01 0.02 0.06 0.05 0.02 0.01 0.01 0.01 0.00 0.00 0.00 0.00 0.00 0.00 0.00 0.00 0.00 0.00 0.00 0.00 0.00 0.00 0.00 0.00 0.00 0.00 0.00 0.00 0.00 0.00 0.00 0.00 0.00 0.00 0.00 0.00 0.00 0.00 0.00 0.00 0.00 0.00 0.00 0.00 0.00
0.00 0.00 0.00 0.00 0.00 0.00 0.01 0.06 0.04 0.02 0.02 0.01 0.00 0.00 0.00 0.00 0.00 0.00 0.00 0.00 0.00 0.00 0.00 0.00 0.00 0.00 0.00 0.00 0.00 0.00 0.00 0.00 0.00 0.00 0.00 0.00 0.00 0.00 0.00 0.00 0.00 0.00 0.01 0.01 0.00 0.00 0.00 0.00 0.00
0.00 0.00 0.00 0.00 0.00 0.00 0.01 0.08 0.05 0.03 0.05 0.02 0.00 0.00 0.00 0.00 0.00 0.00 0.00 0.00 0.00 0.00 0.00 0.00 0.00 0.00 0.00 0.00 0.00 0.00 0.00 0.00 0.00 0.00 0.00 0.00 0.00 0.00 0.00 0.00 0.00 0.00 0.00 0.00 0.01 0.02 0.01 0.00 0.00
0.00 0.00 0.00 0.00 0.00 0.00 0.00 0.05 0.06 0.04 0.03 0.02 0.00 0.00 0.00 0.00 0.00 0.00 0.00 0.00 0.00 0.00 0.00 0.00 0.00 0.00 0.00 0.00 0.00 0.00 0.00 0.00 0.00 0.00 0.00 0.00 0.00 0.00 0.00 0.00 0.00 0.00 0.00 0.00 0.00 0.01 0.01 0.02 0.03
0.00 0.00 0.00 0.00 0.00 0.00 0.00 0.03 0.01 0.02 0.03 0.04 0.04 0.00 0.00 0.00 0.00 0.00 0.00 0.00 0.00 0.00 0.00 0.00 0.00 0.00 0.00 0.00 0.00 0.00 0.00 0.00 0.00 0.00 0.00 0.00 0.00 0.00 0.00 0.00 0.00 0.00 0.00 0.00 0.00 0.00 0.00 0.02 0.03
0.00 0.00 0.00 0.00 0.00 0.00 0.00 0.00 0.01 0.01 0.01 0.11 0.06 0.03 0.01 0.00 0.00 0.00 0.00 0.00 0.00 0.00 0.00 0.00 0.00 0.00 0.00 0.00 0.00 0.00 0.00 0.00 0.00 0.00 0.00 0.00 0.00 0.00 0.00 0.00 0.00 0.01 0.01 0.00 0.00 0.01 0.00 0.01 0.04
0.00 0.00 0.00 0.00 0.00 0.00 0.00 0.03 0.04 0.01 0.02 0.13 0.09 0.03 0.01 0.00 0.00 0.00 0.00 0.00 0.00 0.00 0.00 0.00 0.00 0.00 0.00 0.00 0.00 0.00 0.01 0.01 0.01 0.01 0.00 0.00 0.00 0.01 0.00 0.00 0.02 0.04 0.00 0.00 0.01 0.02 0.02 0.03 0.03
0.00 0.00 0.00 0.00 0.00 0.00 0.01 0.03 0.04 0.07 0.16 0.09 0.05 0.01 0.00 0.00 0.00 0.00 0.01 0.00 0.00 0.00 0.00 0.00 0.00 0.00 0.00 0.00 0.00 0.00 0.01 0.01 0.00 0.00 0.00 0.00 0.00 0.00 0.00 0.01 0.02 0.03 0.00 0.02 0.05 0.05 0.06 0.06 0.09
0.00 0.00 0.00 0.00 0.00 0.00 0.00 0.01 0.03 0.06 0.08 0.04 0.01 0.00 0.00 0.00 0.00 0.00 0.00 0.00 0.00 0.00 0.00 0.00 0.00 0.00 0.00 0.00 0.00 0.00 0.00 0.00 0.00 0.00 0.00 0.00 0.00 0.00 0.00 0.00 0.02 0.03 0.07 0.03 0.00 0.00 0.00 0.00 0.01
0.00 0.00 0.00 0.00 0.00 0.00 0.00 0.01 0.01 0.01 0.01 0.00 0.00 0.00 0.00 0.00 0.00 0.00 0.00 0.00 0.00 0.00 0.00 0.00 0.00 0.00 0.00 0.00 0.00 0.00 0.00 0.00 0.00 0.00 0.00 0.00 0.00 0.01 0.01 0.02 0.05 0.06 0.04 0.01 0.00 0.00 0.00 0.00 0.01
0.00 0.00 0.00 0.00 0.00 0.02 0.06 0.01 0.01 0.01 0.01 0.00 0.00 0.00 0.00 0.00 0.00 0.00 0.00 0.00 0.00 0.00 0.00 0.00 0.00 0.00 0.00 0.00 0.00 0.00 0.00 0.00 0.00 0.00 0.00 0.00 0.00 0.04 0.02 0.03 0.06 0.04 0.04 0.01 0.00 0.00 0.00 0.00 0.00
0.00 0.00 0.00 0.00 0.00 0.04 0.08 0.02 0.01 0.01 0.00 0.00 0.00 0.00 0.00 0.00 0.00 0.00 0.00 0.00 0.00 0.00 0.00 0.00 0.00 0.00 0.00 0.00 0.00 0.00 0.00 0.00 0.00 0.00 0.00 0.00 0.00 0.03 0.01 0.00 0.00 0.01 0.00 0.00 0.00 0.00 0.00 0.00 0.00
0.00 0.00 0.00 0.00 0.00 0.02 0.05 0.05 0.00 0.00 0.00 0.00 0.00 0.00 0.00 0.00 0.00 0.00 0.00 0.00 0.00 0.00 0.00 0.00 0.00 0.00 0.00 0.00 0.00 0.00 0.00 0.00 0.00 0.00 0.00 0.00 0.00 0.01 0.01 0.00 0.00 0.00 0.00 0.00 0.00 0.00 0.00 0.00 0.00
0.00 0.00 0.00 0.00 0.00 0.02 0.02 0.04 0.00 0.00 0.00 0.00 0.00 0.00 0.00 0.00 0.00 0.00 0.00 0.00 0.00 0.00 0.00 0.00 0.00 0.00 0.00 0.00 0.00 0.00 0.00 0.00 0.00 0.00 0.00 0.00 0.00 0.00 0.01 0.00 0.00 0.00 0.00 0.00 0.00 0.00 0.00 0.00 0.00
MSLP
1009.54 1010.10 1010.39 1010.40 1011.14 1013.35 1013.49 1012.19 1010.23 1010.30 1009.99 1010.11 1010.06 1010.22 1011.04 1011.13 1012.53 1015.09 1016.30 1016.54 1016.13 1016.28 1015.94 1016.16 1016.39 1016.57 1016.82 1017.05 1017.16 1017.39 1017.53 1017.75 1017.97 1018.11 1018.35 1018.49 1018.61 1018.78 1018.98 1019.08 1019.20 1019.24 1019.35 1019.43 1019.56 1019.54 1019.48 1019.37 1019.24
1009.21 1009.57 1010.44 1010.91 1012.63 1014.17 1015.75 1014.21 1012.03 1012.01 1011.38 1011.30 1010.70 1011.16 1011.23 1011.92 1012.69 1014.28 1015.48 1015.14 1015.00 1015.80 1016.42 1016.62 1016.88 1016.90 1017.09 1017.32 1017.47 1017.70 1017.89 1018.04 1018.28 1018.38 1018.62 1018.85 1018.99 1019.14 1019.31 1019.41 1019.46 1019.55 1019.67 1019.80 1019.91 1019.94 1019.93 1019.85 1019.66
1009.24 1009.22 1010.08 1011.11 1013.23 1015.07 1016.43 1015.33 1013.92 1011.70 1011.09 1010.96 1011.76 1011.79 1011.86 1012.38 1012.60 1013.99 1014.93 1015.39 1015.89 1016.44 1016.70 1016.91 1017.09 1017.13 1017.26 1017.59 1017.76 1018.05 1018.28 1018.42 1018.58 1018.74 1018.91 1019.13 1019.33 1019.53 1019.67 1019.73 1019.75 1019.90 1020.08 1020.17 1020.25 1020.33 1020.29 1020.18 1020.03
1009.21 1009.40 1009.58 1010.33 1013.33 1014.47 1015.67 1014.59 1013.80 1012.10 1011.62 1012.22 1013.82 1013.24 1012.92 1012.74 1013.41 1014.37 1015.23 1015.40 1016.05 1016.91 1017.06 1017.16 1017.33 1017.54 1017.67 1017.78 1018.08 1018.33 1018.56 1018.78 1018.95 1019.15 1019.30 1019.38 1019.48 1019.70 1019.93 1020.02 1020.07 1020.21 1020.40 1020.48 1020.59 1020.60 1020.55 1020.43 1020.22
1009.15 1009.27 1010.21 1011.80 1013.51 1014.67 1015.57 1015.64 1015.55 1013.14 1013.10 1013.08 1013.86 1014.06 1013.75 1013.99 1014.32 1014.66 1015.34 1015.69 1016.23 1017.10 1017.34 1017.48 1017.70 1017.87 1018.04 1018.31 1018.46 1018.58 1018.68 1018.93 1019.15 1019.30 1019.54 1019.67 1019.76 1019.98 1020.15 1020.28 1020.32 1020.52 1020.69 1020.73 1020.79 1020.71 1020.63 1020.63 1020.38
1008.96 1008.86 1010.21 1012.91 1014.86 1016.38 1016.86 1016.56 1015.20 1013.97 1014.33 1013.73 1014.27 1014.33 1014.42 1014.70 1014.79 1015.42 1015.73 1016.04 1016.55 1017.10 1017.36 1017.57 1017.88 1018.09 1018.32 1018.48 1018.65 1018.79 1018.98 1019.08 1019.24 1019.44 1019.60 1019.80 1019.94 1020.17 1020.32 1020.46 1020.58 1020.74 1020.75 1020.77 1020.87 1020.83 1020.73 1020.73 1020.53
1008.26 1009.12 1010.10 1012.41 1014.77 1016.86 1016.73 1015.77 1016.09 1016.37 1014.82 1015.17 1015.69 1015.06 1015.13 1015.92 1015.89 1016.05 1016.18 1016.51 1016.84 1017.32 1017.45 1017.77 1018.01 1018.24 1018.56 1018.77 1018.96 1019.09 1019.27 1019.34 1019.50 1019.60 1019.75 1019.86 1019.98 1020.32 1020.47 1020.60 1020.73 1020.85 1020.94 1020.90 1020.93 1020.78 1020.73 1020.75 1020.74
1007.17 1008.55 1009.45 1011.40 1014.25 1016.78 1016.58 1015.21 1015.76 1016.53 1016.63 1016.39 1016.72 1015.95 1016.19 1016.36 1016.42 1016.63 1017.07 1017.50 1017.93 1017.98 1018.05 1018.13 1018.33 1018.77 1019.05 1019.15 1019.36 1019.56 1019.71 1019.75 1019.83 1019.84 1019.80 1019.95 1020.00 1020.15 1020.40 1020.55 1020.78 1020.81 1020.78 1020.92 1020.91 1020.79 1020.83 1020.84 1020.70
1006.45 1008.17 1009.11 1010.28 1013.99 1015.94 1016.24 1015.11 1015.69 1016.63 1016.38 1018.01 1017.45 1016.92 1017.15 1017.11 1016.99 1017.56 1018.00 1018.69 1018.56 1018.56 1018.72 1018.65 1018.99 1019.03 1019.26 1019.49 1019.73 1019.92 1020.05 1020.16 1020.35 1020.27 1020.22 1020.51 1020.78 1020.72 1020.69 1020.57 1020.66 1020.59 1021.01 1021.15 1021.22 1021.34 1021.09 1020.91 1020.64
1007.02 1008.07 1008.76 1009.37 1012.20 1015.27 1015.85 1014.94 1015.97 1016.39 1017.30 1018.17 1018.04 1018.10 1018.67 1017.97 1018.16 1018.92 1019.47 1019.45 1019.50 1019.66 1019.72 1019.35 1019.48 1019.58 1019.65 1019.84 1020.07 1020.26 1020.48 1020.67 1020.76 1020.61 1020.74 1020.99 1020.95 1020.84 1020.75 1020.54 1020.76 1021.59 1021.48 1021.30 1021.25 1021.07 1021.14 1021.04 1020.70
1006.93 1008.21 1008.95 1011.29 1013.70 1014.46 1016.22 1016.88 1017.28 1017.62 1018.31 1019.09 1019.33 1019.65 1019.92 1019.82 1019.50 1019.88 1020.17 1020.25 1020.77 1020.72 1020.58 1020.42 1020.06 1020.12 1020.18 1020.40 1020.53 1020.55 1020.89 1021.14 1021.34 1021.23 1021.11 1021.23 1021.33 1021.28 1020.81 1020.89 1020.49 1021.75 1021.85 1021.97 1021.74 1021.50 1021.37 1021.27 1020.93
1007.01 1008.27 1010.09 1013.83 1013.57 1014.63 1016.07 1017.03 1018.15 1018.25 1019.50 1020.08 1020.38 1020.59 1020.67 1020.68 1020.92 1021.21 1021.45 1021.64 1021.64 1021.39 1021.48 1021.36 1021.11 1020.94 1020.82 1020.82 1021.06 1021.17 1021.36 1021.47 1021.72 1021.83 1021.73 1021.65 1021.71 1021.43 1021.92 1021.58 1021.77 1022.16 1022.16 1021.63 1021.77 1021.87 1021.42 1021.29 1021.11
1008.04 1009.54 1011.27 1013.44 1015.17 1016.62 1017.99 1018.60 1018.58 1019.80 1020.39 1020.60 1020.97 1021.01 1021.30 1021.71 1022.19 1022.47 1022.43 1022.37 1022.33 1022.11 1022.15 1022.06 1021.76 1021.74 1021.70 1021.69 1021.71 1021.70 1021.68 1021.67 1021.87 1022.07 1022.16 1022.22 1022.33 1022.54 1022.33 1022.14 1022.09 1022.17 1022.31 1022.07 1021.75 1021.60 1021.50 1021.29 1021.17
1009.23 1010.87 1012.37 1013.86 1015.51 1017.22 1017.75 1019.48 1019.98 1020.78 1020.71 1021.50 1021.84 1022.33 1022.71 1022.83 1023.08 1023.07 1023.00 1023.03 1022.77 1022.61 1022.52 1022.41 1022.19 1022.14 1022.01 1022.07 1022.05 1021.98 1021.90 1021.95 1021.95 1021.97 1022.04 1022.19 1022.29 1022.33 1022.26 1022.19 1022.17 1022.13 1022.04 1021.95 1021.83 1021.93 1022.01 1021.61 1021.41
1009.68 1011.20 1012.58 1013.96 1015.16 1016.51 1016.42 1018.28 1020.67 1021.27 1021.57 1022.08 1022.71 1023.03 1023.31 1023.35 1023.45 1023.57 1023.71 1023.58 1023.30 1023.08 1022.91 1022.70 1022.65 1022.52 1022.21 1022.00 1022.10 1021.84 1021.79 1021.84 1021.94 1021.96 1021.96 1021.98 1021.99 1022.09 1022.22 1022.21 1022.20 1022.11 1021.90 1021.90 1022.00 1021.82 1021.48 1021.23 1021.33
1010.09 1011.89 1014.09 1014.40 1013.42 1016.46 1016.16 1017.32 1020.24 1020.94 1021.45 1022.51 1023.54 1023.91 1024.08 1024.12 1024.10 1023.94 1023.82 1023.57 1023.39 1023.42 1023.35 1023.15 1023.03 1023.02 1022.86 1022.62 1022.22 1022.02 1021.86 1021.76 1021.82 1021.94 1021.84 1021.88 1021.98 1021.88 1022.18 1022.23 1021.96 1021.68 1021.63 1021.48 1021.48 1021.51 1021.48 1021.54 1021.22
1011.11 1013.51 1014.69 1014.35 1013.07 1015.54 1016.80 1017.43 1018.46 1020.72 1021.61 1022.91 1023.43 1024.21 1024.48 1024.36 1024.42 1024.13 1023.60 1023.48 1023.44 1023.40 1023.66 1023.63 1023.47 1023.47 1023.16 1022.97 1022.65 1022.25 1022.01 1022.08 1021.60 1021.54 1021.82 1021.83 1021.88 1021.80 1021.92 1022.11 1021.85 1021.43 1021.46 1021.41 1021.36 1021.39 1021.36 1021.46 1021.32
1010.77 1013.20 1013.92 1013.85 1013.51 1014.40 1016.44 1017.13 1018.09 1020.97 1021.68 1023.29 1023.93 1024.47 1024.52 1024.33 1024.13 1023.88 1023.59 1023.36 1023.43 1023.57 1023.79 1023.87 1023.74 1023.57 1023.28 1023.16 1023.06 1022.73 1022.40 1022.16 1022.05 1021.96 1021.98 1021.83 1021.79 1021.67 1021.79 1021.84 1021.76 1021.30 1021.38 1021.32 1021.14 1021.08 1021.04 1021.13 1021.11
1008.82 1010.87 1012.27 1012.58 1012.37 1014.61 1016.74 1019.15 1019.05 1021.19 1022.82 1022.60 1024.18 1024.37 1024.95 1024.54 1024.35 1024.20 1023.89 1023.60 1023.58 1023.77 1024.10 1024.20 1023.93 1023.83 1023.55 1023.47 1023.51 1023.29 1023.30 1022.88 1022.70 1022.53 1022.25 1022.01 1021.71 1021.46 1021.60 1021.70 1021.66 1021.46 1021.39 1021.28 1021.16 1020.87 1020.89 1020.95 1020.77
1008.16 1009.51 1010.61 1011.24 1011.80 1014.89 1018.00 1020.96 1021.93 1022.38 1022.06 1023.51 1023.50 1024.20 1024.85 1024.56 1024.53 1024.20 1024.01 1023.86 1024.00 1024.13 1024.35 1024.27 1024.24 1024.23 1024.18 1024.06 1023.90 1023.74 1023.46 1023.10 1022.70 1022.51 1022.28 1022.03 1021.78 1021.70 1021.50 1021.64 1021.59 1021.40 1021.32 1021.09 1021.15 1021.01 1020.98 1020.75 1020.55
1008.00 1008.88 1009.50 1010.39 1011.08 1014.08 1016.22 1020.48 1022.42 1022.51 1022.77 1023.45 1023.49 1024.24 1024.39 1024.51 1024.74 1024.78 1024.49 1024.44 1024.26 1024.29 1024.32 1024.55 1024.76 1024.66 1024.53 1024.20 1024.10 1023.94 1023.61 1023.36 1023.09 1022.86 1022.61 1022.39 1021.85 1021.50 1021.55 1021.54 1021.38 1021.14 1021.11 1021.06 1020.92 1020.88 1020.80 1020.75 1020.33
1008.19 1008.47 1009.14 1009.96 1011.28 1013.40 1014.48 1020.11 1022.35 1022.77 1023.73 1023.83 1023.92 1024.54 1024.98 1025.24 1025.16 1024.90 1024.92 1024.58 1024.55 1024.69 1025.00 1024.96 1024.90 1024.82 1024.73 1024.40 1024.60 1024.59 1024.55 1024.33 1024.00 1023.53 1023.08 1022.65 1022.12 1022.00 1021.85 1021.55 1021.15 1021.03 1020.99 1020.95 1020.66 1020.46 1020.43 1020.41 1020.38
1008.66 1008.79 1009.38 1009.90 1011.12 1012.62 1015.66 1018.72 1022.52 1022.91 1023.41 1024.07 1024.62 1025.12 1025.34 1025.33 1025.19 1025.12 1025.05 1024.76 1024.77 1024.66 1025.05 1025.27 1025.15 1025.02 1024.78 1024.93 1024.84 1024.83 1024.97 1024.60 1024.17 1023.77 1023.38 1022.93 1022.24 1022.23 1022.03 1021.63 1021.19 1021.08 1020.99 1020.83 1020.56 1020.38 1020.31 1020.23 1020.25
1008.61 1009.42 1010.19 1010.84 1012.12 1014.83 1017.29 1018.83 1023.04 1023.32 1023.33 1024.36 1024.87 1025.16 1025.15 1025.23 1025.17 1025.15 1024.93 1024.93 1025.25 1025.00 1025.34 1025.53 1025.49 1025.72 1025.42 1025.18 1025.17 1025.09 1025.09 1024.87 1024.61 1024.21 1023.87 1023.36 1022.83 1022.42 1022.10 1021.69 1021.48 1021.15 1020.96 1020.80 1020.56 1020.46 1020.36 1020.25 1020.13
1009.71 1010.94 1012.06 1013.39 1014.77 1017.26 1018.54 1019.97 1022.98 1022.93 1023.18 1023.88 1024.70 1025.04 1025.13 1025.25 1025.27 1025.28 1025.46 1025.68 1025.95 1025.92 1026.07 1025.88 1026.13 1026.22 1025.76 1025.32 1025.40 1025.42 1025.32 1025.11 1024.95 1024.63 1024.25 1023.82 1023.28 1022.78 1022.35 1021.91 1021.53 1021.20 1020.93 1020.67 1020.69 1020.75 1020.60 1020.38 1020.22
1011.14 1012.08 1013.49 1014.63 1016.19 1017.69 1019.17 1021.59 1023.11 1022.89 1023.11 1023.39 1024.23 1024.66 1025.06 1025.21 1025.34 1025.55 1026.17 1026.35 1026.29 1026.51 1026.79 1026.77 1026.59 1026.49 1026.10 1025.68 1025.82 1025.69 1025.55 1025.31 1025.03 1024.68 1024.29 1023.92 1023.46 1022.94 1022.30 1021.79 1021.33 1021.02 1020.92 1020.92 1020.93 1020.87 1020.71 1020.46 1020.33
1011.38 1012.51 1013.27 1014.51 1015.55 1018.09 1021.40 1022.68 1022.67 1022.82 1023.46 1023.98 1024.87 1024.92 1025.44 1025.55 1026.31 1026.56 1026.61 1026.63 1026.90 1027.17 1027.15 1027.05 1026.91 1026.60 1026.37 1026.13 1026.05 1025.97 1025.71 1025.40 1025.16 1024.74 1024.36 1024.00 1023.58 1022.73 1022.40 1021.99 1021.67 1021.43 1021.38 1021.32 1021.30 1021.22 1021.03 1020.82 1020.70
1011.78 1012.80 1013.80 1015.30 1017.28 1019.57 1022.22 1023.00 1022.83 1023.04 1023.77 1024.64 1025.18 1025.48 1025.78 1026.27 1026.78 1026.86 1026.97 1027.23 1027.34 1027.46 1027.33 1027.03 1026.88 1026.76 1026.61 1026.42 1026.22 1026.04 1025.76 1025.48 1025.15 1024.79 1024.39 1023.99 1023.59 1023.04 1022.61 1022.35 1022.04 1021.81 1021.69 1021.61 1021.63 1021.57 1021.40 1021.16 1021.04
1012.74 1013.81 1015.01 1016.08 1018.04 1020.18 1021.85 1023.30 1022.93 1022.63 1023.55 1024.61 1025.29 1025.62 1026.03 1026.47 1027.10 1027.29 1027.39 1027.59 1027.66 1027.53 1027.46 1027.33 1027.05 1026.85 1026.76 1026.59 1026.42 1026.20 1025.87 1025.58 1025.23 1024.90 1024.47 1024.03 1023.54 1023.16 1022.89 1022.58 1022.40 1022.26 1022.14 1021.91 1021.87 1021.67 1021.48 1021.42 1021.31
1013.31 1014.59 1015.74 1017.37 1018.98 1020.33 1021.50 1022.91 1022.15 1022.64 1023.42 1024.20 1024.99 1025.51 1026.12 1026.77 1027.21 1027.42 1027.91 1027.99 1027.95 1027.79 1027.74 1027.56 1027.33 1027.07 1026.91 1026.75 1026.62 1026.37 1026.12 1025.80 1025.45 1025.04 1024.57 1024.03 1023.83 1023.38 1023.07 1022.77 1022.69 1022.60 1022.54 1022.50 1022.31 1022.06 1021.85 1021.71 1021.70
Thickness
5819 5814 5812 5803 5766 5746 5730 5753 5796 5780 5777 5789 5791 5781 5770 5776 5755 5719 5747 5739 5747 5748 5748 5746 5748 5748 5746 5744 5744 5742 5740 5738 5737 5735 5733 5732 5731 5728 5726 5725 5724 5725 5725 5725 5724 5724 5725 5726 5726
5822 5819 5805 5785 5739 5723 5705 5739 5762 5763 5775 5780 5785 5777 5769 5756 5770 5758 5749 5758 5757 5748 5743 5744 5743 5744 5742 5740 5739 5737 5735 5734 5732 5730 5727 5725 5724 5722 5720 5719 5719 5719 5719 5718 5717 5717 5717 5718 5719
5822 5824 5790 5762 5739 5708 5701 5728 5744 5773 5786 5782 5766 5774 5769 5758 5774 5761 5758 5755 5749 5744 5743 5742 5741 5741 5740 5737 5735 5731 5728 5727 5725 5724 5721 5719 5716 5715 5714 5713 5713 5712 5711 5711 5711 5710 5710 5711 5711
5815 5808 5801 5763 5739 5748 5727 5746 5762 5774 5783 5775 5750 5747 5766 5775 5768 5767 5760 5756 5750 5743 5742 5742 5740 5737 5735 5733 5729 5726 5723 5720 5718 5715 5713 5712 5710 5708 5706 5705 5706 5706 5704 5704 5704 5703 5704 5704 5705
5816 5800 5764 5748 5744 5739 5741 5746 5745 5763 5763 5761 5755 5742 5749 5763 5766 5765 5761 5756 5749 5743 5739 5737 5733 5730 5728 5725 5722 5720 5718 5715 5712 5709 5706 5704 5703 5702 5701 5700 5700 5699 5697 5698 5698 5698 5699 5698 5699
5795 5797 5758 5724 5725 5723 5731 5741 5756 5764 5758 5762 5755 5746 5747 5765 5762 5759 5759 5756 5749 5742 5737 5733 5729 5725 5723 5720 5717 5714 5711 5709 5705 5702 5701 5698 5697 5695 5694 5693 5692 5691 5691 5691 5690 5690 5691 5691 5693
5794 5777 5763 5745 5727 5720 5733 5750 5748 5737 5752 5744 5749 5735 5745 5749 5754 5753 5753 5749 5745 5740 5736 5730 5727 5723 5719 5715 5712 5709 5705 5702 5699 5696 5693 5690 5689 5687 5686 5684 5683 5683 5682 5683 5683 5684 5685 5685 5686
5815 5789 5784 5770 5732 5711 5736 5755 5753 5714 5735 5750 5739 5729 5729 5741 5752 5750 5743 5737 5733 5731 5728 5727 5723 5716 5712 5709 5704 5702 5699 5696 5692 5689 5688 5685 5685 5684 5682 5678 5675 5675 5675 5675 5676 5677 5679 5678 5679
5835 5776 5767 5773 5734 5725 5744 5757 5755 5751 5745 5731 5736 5737 5738 5741 5741 5737 5733 5726 5725 5724 5720 5718 5713 5711 5706 5702 5697 5693 5690 5687 5684 5682 5680 5677 5676 5675 5675 5674 5671 5670 5668 5667 5665 5666 5669 5670 5671
5804 5775 5775 5796 5771 5737 5748 5761 5755 5748 5736 5721 5725 5735 5728 5737 5730 5717 5711 5712 5714 5710 5706 5709 5706 5701 5698 5693 5690 5685 5681 5678 5677 5675 5671 5669 5669 5668 5669 5667 5664 5655 5655 5657 5656 5659 5659 5659 5663
5815 5786 5798 5775 5756 5759 5745 5743 5744 5735 5724 5722 5717 5715 5715 5713 5716 5713 5708 5707 5699 5698 5695 5694 5695 5692 5687 5683 5680 5677 5673 5669 5666 5666 5663 5660 5659 5659 5663 5660 5661 5646 5645 5647 5647 5646 5648 5650 5652
5808 5812 5796 5760 5771 5766 5742 5746 5731 5735 5720 5720 5716 5713 5709 5705 5700 5697 5695 5690 5688 5688 5684 5682 5680 5679 5678 5673 5670 5668 5665 5660 5657 5655 5654 5652 5649 5650 5645 5647 5643 5637 5636 5644 5640 5634 5641 5642 5640
5801 5796 5784 5771 5759 5745 5735 5724 5726 5717 5718 5718 5711 5707 5701 5694 5687 5684 5683 5681 5679 5677 5673 5670 5668 5665 5662 5660 5657 5655 5655 5653 5649 5644 5642 5640 5637 5632 5632 5633 5631 5628 5626 5629 5631 5631 5629 5632 5631
5797 5779 5769 5767 5751 5737 5727 5716 5715 5708 5714 5703 5697 5689 5685 5682 5678 5676 5673 5669 5668 5667 5665 5661 5658 5655 5653 5650 5648 5644 5643 5642 5641 5639 5635 5631 5629 5626 5624 5621 5618 5618 5618 5620 5620 5617 5615 5618 5619
5793 5770 5768 5758 5749 5731 5743 5722 5696 5700 5699 5690 5683 5680 5676 5675 5671 5665 5661 5658 5657 5656 5654 5650 5647 5644 5643 5642 5638 5637 5634 5631 5629 5628 5625 5623 5621 5618 5614 5612 5609 5608 5609 5607 5606 5607 5609 5611 5609
5783 5761 5727 5747 5767 5733 5742 5715 5697 5698 5692 5680 5672 5668 5665 5662 5659 5657 5654 5652 5649 5644 5641 5639 5636 5633 5630 5629 5630 5626 5623 5622 5618 5615 5614 5612 5608 5606 5603 5601 5600 5600 5599 5598 5598 5598 5597 5597 5600
5761 5719 5716 5735 5768 5738 5716 5706 5710 5690 5683 5671 5670 5663 5657 5654 5651 5652 5651 5647 5643 5640 5634 5629 5626 5620 5618 5618 5615 5613 5611 5607 5611 5609 5607 5604 5597 5595 5592 5589 5589 5591 5589 5588 5587 5587 5587 5585 5586
5740 5717 5725 5729 5748 5741 5705 5703 5694 5673 5666 5655 5661 5657 5654 5650 5649 5649 5645 5643 5640 5635 5628 5623 5619 5614 5609 5606 5602 5600 5597 5596 5596 5594 5591 5590 5588 5586 5581 5577 5576 5579 5577 5577 5578 5578 5578 5577 5576
5776 5748 5735 5744 5760 5737 5704 5685 5657 5651 5657 5666 5653 5649 5642 5641 5641 5640 5636 5636 5632 5626 5617 5613 5610 5604 5599 5593 5587 5585 5579 5578 5577 5576 5574 5573 5572 5573 5569 5566 5562 5563 5563 5563 5563 5566 5566 5565 5567
5787 5770 5760 5764 5770 5722 5689 5664 5663 5657 5665 5647 5648 5642 5638 5638 5636 5635 5632 5628 5623 5616 5609 5605 5598 5590 5585 5581 5575 5570 5566 5563 5561 5558 5558 5556 5556 5555 5554 5552 5550 5550 5550 5551 5550 5550 5551 5553 5554
5775 5764 5764 5762 5778 5727 5711 5669 5654 5663 5660 5648 5646 5639 5636 5632 5626 5622 5617 5611 5608 5602 5597 5588 5579 5572 5570 5566 5559 5553 5549 5545 5541 5539 5539 5539 5540 5540 5537 5536 5537 5537 5537 5537 5538 5538 5540 5539 5544
5755 5783 5776 5769 5751 5721 5742 5655 5651 5653 5642 5643 5636 5626 5621 5614 5613 5611 5604 5600 5595 5588 5580 5574 5568 5561 5555 5550 5542 5536 5529 5523 5522 5521 5521 5520 5521 5520 5518 5520 5522 5523 5524 5524 5525 5528 5529 5531 5533
5761 5779 5770 5768 5750 5739 5708 5673 5641 5647 5643 5635 5623 5617 5613 5609 5608 5601 5593 5592 5586 5579 5570 5565 5556 5549 5543 5536 5529 5522 5515 5511 5509 5507 5505 5504 5507 5506 5505 5507 5509 5511 5512 5513 5515 5517 5518 5520 5522
5782 5761 5754 5752 5734 5691 5686 5670 5629 5637 5633 5622 5620 5617 5612 5607 5602 5597 5593 5588 5576 5570 5559 5550 5542 5533 5529 5525 5518 5511 5503 5499 5495 5492 5490 5490 5492 5493 5494 5495 5496 5499 5500 5502 5505 5508 5510 5512 5516
5756 5726 5685 5680 5677 5661 5677 5655 5632 5644 5644 5631 5620 5616 5613 5605 5599 5592 5582 5572 5561 5556 5548 5542 5532 5523 5520 5517 5509 5500 5492 5487 5481 5479 5477 5476 5477 5479 5481 5484 5487 5490 5492 5494 5496 5498 5501 5505 5509
5731 5717 5680 5659 5661 5668 5671 5637 5623 5648 5645 5642 5630 5622 5610 5602 5598 5586 5570 5561 5557 5551 5541 5533 5527 5520 5514 5508 5497 5489 5482 5476 5471 5469 5468 5467 5466 5468 5471 5476 5480 5484 5485 5487 5489 5491 5495 5499 5503
5730 5703 5726 5695 5698 5661 5633 5633 5644 5646 5635 5630 5616 5610 5600 5598 5580 5571 5564 5557 5548 5539 5533 5526 5520 5515 5508 5500 5493 5484 5477 5471 5466 5465 5464 5462 5462 5464 5465 5468 5471 5475 5477 5480 5482 5485 5489 5493 5496
5730 5732 5686 5681 5655 5639 5620 5613 5623 5631 5623 5614 5607 5599 5596 5588 5572 5566 5559 5549 5539 5533 5527 5523 5517 5512 5506 5499 5492 5484 5477 5471 5466 5464 5462 5461 5460 5460 5461 5463 5466 5470 5473 5476 5478 5480 5484 5487 5490
5707 5696 5696 5687 5667 5629 5620 5605 5634 5634 5623 5609 5604 5597 5591 5580 5567 5559 5551 5541 5535 5530 5526 5520 5517 5513 5506 5498 5492 5486 5479 5472 5467 5463 5462 5461 5460 5460 5460 5461 5464 5466 5469 5473 5475 5477 5480 5483 5487
5715 5694 5687 5652 5652 5638 5624 5614 5647 5638 5626 5615 5606 5599 5588 5576 5562 5554 5543 5535 5531 5529 5525 5520 5515 5511 5506 5499 5492 5488 5482 5475 5470 5466 5464 5463 5461 5461 5461 5462 5463 5465 5466 5468 5472 5476 5479 5483 5486